Flag for South Africa Weather past 2 weeks in Bloemfontein, South Africa

Now
23 °F

Sunny.


Feels Like: 23 °F
Forecast: 32 / 60 °F
Wind: No wind

Location: Bloemfontein Airport

Current Time: Aug 23, 2014 at 7:43:41 AM

Latest Report: Aug 23, 2014 at 7:00 AM


Visibility: 10 mi

Pressure: 30.18 "Hg

Humidity: 80%

Dew point: 18 °F

Location of BloemfonteinLocation

Historic Weather in Bloemfontein — Graph

°F

Bloemfontein temperature yesterday

Maximum temperature yesterday: 57 °F (at 2:00 PM)
Minimum temperature yesterday: 28 °F (at 7:00 AM)
Average temperature yesterday: 45 °F

Past Weeks' High & Low Weather Summary

 TemperatureHumidityPressure
High75 °F (Aug 19, 3:00 PM)93% (Aug 10, 4:00 AM)30.54 "Hg (Aug 10, 4:00 AM)
Low25 °F (Aug 23, 6:00 AM)14% (Aug 21, 4:00 PM)30.01 "Hg (Aug 21, 3:00 PM)
Average55 °F56%30.24 "Hg
* Reported Aug 8 6:00 AM — Aug 23 6:00 AM, Bloemfontein, Weather by CustomWeather, © 2014

Note: Actual official high and low records may vary slightly from our data, if they occured in-between our weather recording intervals... More about our weather records

Advertising

Bloemfontein weather history for previous 24 hours

 ConditionsComfort  
Time TempWeatherWind HumidityBarometerVisibility
6:00 AM
Aug 23
25 °FSunny.1 mph80%30.18 "Hg10 mi
5:00 AM27 °FClear.No wind74%30.21 "Hg10 mi
4:00 AM27 °FChilly.2 mph74%30.15 "HgN/A
3:00 AM30 °FChilly.1 mph75%30.15 "HgN/A
2:00 AM34 °FChilly.5 mph60%30.15 "HgN/A
1:00 AM36 °FChilly.6 mph56%30.18 "HgN/A
12:00 AM39 °FChilly.5 mph48%30.18 "HgN/A
11:00 PM
Aug 22
45 °FQuite cool.12 mph39%30.18 "HgN/A
10:00 PM45 °FQuite cool.7 mph39%30.18 "HgN/A
9:00 PM43 °FQuite cool.8 mph36%30.18 "HgN/A
8:00 PM46 °FClear.6 mph32%30.18 "Hg10 mi
7:00 PM50 °FClear.8 mph25%30.15 "Hg10 mi
6:00 PM54 °FClear.12 mph26%30.15 "Hg10 mi
5:00 PM57 °FClear.9 mph20%30.15 "Hg10 mi
4:00 PM57 °FPassing clouds.14 mph27%30.12 "HgN/A
3:00 PM57 °FPassing clouds.14 mph29%30.12 "HgN/A
2:00 PM57 °FSunny.12 mph23%30.18 "Hg10 mi
1:00 PM54 °FPassing clouds.9 mph30%30.15 "HgN/A
12:00 PM52 °FPassing clouds.9 mph32%30.18 "HgN/A
11:00 AM50 °FSunny.3 mph37%30.21 "Hg10 mi
10:00 AM46 °FPassing clouds.8 mph43%30.21 "HgN/A
9:00 AM43 °FSunny.2 mph53%30.21 "Hg10 mi
8:00 AM36 °FSunny.1 mph75%30.21 "Hg10 mi
7:00 AM28 °FSunny.3 mph80%30.15 "Hg10 mi
Weather by CustomWeather, © 2014

See weather overviewHow to use our weather pages